KC5JIM Weather Reports


Display with metric or nautical units.
time (UTC)temp
F
wind
direction
speed
MPH
gust
MPH
rain 1hr
in
rain 24hr
in
rain mn
in
humidity
%
barometer
mb
20260906191508 91 123 4.0 8.0 0.00 0.00 0.00 33 1006.6
20260906191004 90 125 4.0 11.0 0.00 0.00 0.00 35 1007.0
20260906190500 91 91 4.0 10.0 0.00 0.00 0.00 34 1007.0
20260906185956 91 166 7.0 14.0 0.00 0.00 0.00 34 1007.2
20260906185715 91 89 6.0 14.0 0.00 0.00 0.00 35 1007.3
20260906184948 91 89 11.0 14.0 0.00 0.00 0.00 34 1007.4
20260906184444 90 132 8.0 13.0 0.00 0.00 0.00 36 1007.5
20260906183940 89 137 5.0 13.0 0.00 0.00 0.00 36 1007.7
20260906183436 89 139 4.0 7.0 0.00 0.00 0.00 36 1007.7
20260906182932 90 141 4.0 11.0 0.00 0.00 0.00 36 1007.9
20260906182428 89 44 3.0 8.0 0.00 0.00 0.00 36 1008.0
20260906182145 89 156 4.0 12.0 0.00 0.00 0.00 36 1008.0
20260906181643 89 82 3.0 10.0 0.00 0.00 0.00 36 1008.0
20260906181136 90 93 8.0 12.0 0.00 0.00 0.00 35 1008.3
20260906180412 89 128 3.0 9.0 0.00 0.00 0.00 36 1008.3
20260906175908 89 177 5.0 8.0 0.00 0.00 0.00 36 1008.1
20260906175404 89 72 4.0 9.0 0.00 0.00 0.00 36 1008.3
20260906174900 89 149 6.0 9.0 0.00 0.00 0.00 35 1008.2
20260906174355 89 77 3.0 5.0 0.00 0.00 0.00 35 1008.1
20260906173851 89 136 6.0 11.0 0.00 0.00 0.00 35 1008.2
20260906173347 89 127 3.0 8.0 0.00 0.00 0.00 36 1008.2
20260906172843 90 229 0.0 12.0 0.00 0.00 0.00 35 1008.1
20260906172339 89 160 8.0 10.0 0.00 0.00 0.00 35 1008.2
20260906171835 89 205 8.0 12.0 0.00 0.00 0.00 37 1008.3
20260906171331 90 120 6.0 13.0 0.00 0.00 0.00 36 1008.3
20260906170827 89 139 3.0 11.0 0.00 0.00 0.00 37 1008.1
20260906170323 89 155 4.0 8.0 0.00 0.00 0.00 36 1008.2
20260906165819 90 167 4.0 10.0 0.00 0.00 0.00 36 1008.1
20260906165315 89 160 5.0 9.0 0.00 0.00 0.00 37 1008.2
20260906164811 88 178 4.0 7.0 0.00 0.00 0.00 36 1008.4
20260906164307 89 202 6.0 8.0 0.00 0.00 0.00 36 1008.3
20260906164023 87 113 2.0 6.0 0.00 0.00 0.00 37 1008.2
20260906163259 87 153 2.0 6.0 0.00 0.00 0.00 38 1008.4
20260906162755 87 97 6.0 10.0 0.00 0.00 0.00 38 1008.1
20260906162251 88 153 2.0 5.0 0.00 0.00 0.00 36 1008.2
20260906162009 89 16 2.0 9.0 0.00 0.00 0.00 36 1008.2
20260906161243 89 267 3.0 5.0 0.00 0.00 0.00 35 1008.2
20260906160739 87 67 4.0 5.0 0.00 0.00 0.00 37 1008.3
20260906160235 89 77 3.0 5.0 0.00 0.00 0.00 36 1008.1
20260906155731 88 311 2.0 6.0 0.00 0.00 0.00 36 1008.1
20260906155227 88 52 1.0 4.0 0.00 0.00 0.00 36 1008.1
20260906154724 86 292 2.0 4.0 0.00 0.00 0.00 38 1008.3
20260906154220 86 327 2.0 5.0 0.00 0.00 0.00 39 1008.3
20260906153716 86 341 2.0 3.0 0.00 0.00 0.00 38 1008.5
20260906153212 85 307 1.0 4.0 0.00 0.00 0.00 40 1008.3
20260906152708 85 110 3.0 4.0 0.00 0.00 0.00 39 1008.4
20260906152426 82 217 0.0 3.0 0.00 0.00 0.00 42 1008.7
20260906151700 81 249 0.0 2.0 0.00 0.00 0.00 44 1008.9
20260906151156 82 288 1.0 4.0 0.00 0.00 0.00 45 1009.0
20260906150652 80 257 3.0 6.0 0.00 0.00 0.00 48 1009.0
20260906150148 80 271 2.0 4.0 0.00 0.00 0.00 50 1009.1
20260906145644 81 249 4.0 6.0 0.00 0.00 0.00 49 1008.9
20260906145140 81 273 2.0 5.0 0.00 0.00 0.00 49 1009.0
20260906144856 80 246 1.0 3.0 0.00 0.00 0.00 52 1009.1
20260906144131 79 69 0.0 3.0 0.00 0.00 0.00 50 1009.0
20260906143847 79 327 2.0 3.0 0.00 0.00 0.00 51 1008.9
20260906143123 79 352 3.0 4.0 0.00 0.00 0.00 51 1008.9
20260906142619 78 18 0.0 5.0 0.00 0.00 0.00 52 1009.0
20260906142336 78 34 2.0 3.0 0.00 0.00 0.00 53 1009.0
20260906141611 78 358 2.0 5.0 0.00 0.00 0.00 53 1009.0
20260906141107 78 353 3.0 5.0 0.00 0.00 0.00 53 1008.9
20260906140603 78 7 4.0 7.0 0.00 0.00 0.00 53 1008.7
20260906140100 77 348 4.0 6.0 0.00 0.00 0.00 54 1008.7
20260906135556 77 15 2.0 4.0 0.00 0.00 0.00 54 1008.9
20260906135313 77 36 2.0 5.0 0.00 0.00 0.00 54 1008.7
20260906134548 78 319 2.0 4.0 0.00 0.00 0.00 54 1008.7
20260906134044 78 55 1.0 4.0 0.00 0.00 0.00 53 1008.7
20260906134031 77 42 1.0 4.0 0.00 0.00 0.00 52 1008.3
20260906133036 78 328 1.0 3.0 0.00 0.00 0.00 53 1008.4
20260906132532 78 258 1.0 4.0 0.00 0.00 0.00 52 1008.4
20260906132028 78 188 2.0 3.0 0.00 0.00 0.00 50 1008.3
20260906131524 78 125 2.0 4.0 0.00 0.00 0.00 50 1008.3
20260906131020 78 158 1.0 3.0 0.00 0.00 0.00 51 1008.2
20260906130516 78 108 2.0 4.0 0.00 0.00 0.00 51 1008.2
20260906130011 78 180 2.0 3.0 0.00 0.00 0.00 51 1008.2
20260906125729 78 132 1.0 5.0 0.00 0.00 0.00 51 1008.2
20260906125003 78 201 3.0 4.0 0.00 0.00 0.00 50 1008.2
20260906124500 78 81 2.0 2.0 0.00 0.00 0.00 49 1008.1
20260906123955 78 80 2.0 4.0 0.00 0.00 0.00 50 1008.1
20260906123452 78 251 1.0 2.0 0.00 0.00 0.00 50 1007.9
20260906122948 79 256 1.0 4.0 0.00 0.00 0.00 49 1008.0
20260906122443 79 105 2.0 4.0 0.00 0.00 0.00 48 1008.0
20260906121940 79 170 1.0 4.0 0.00 0.00 0.00 48 1007.7
20260906121436 79 82 4.0 8.0 0.00 0.00 0.00 47 1007.9
20260906120931 79 81 2.0 4.0 0.00 0.00 0.00 48 1007.8
20260906120427 79 124 0.0 5.0 0.00 0.00 0.00 48 1007.8
20260906115924 79 109 2.0 5.0 0.00 0.00 0.00 48 1007.7
20260906115419 79 45 2.0 5.0 0.00 0.00 0.00 48 1007.7
20260906114915 79 22 3.0 6.0 0.00 0.00 0.00 48 1007.6
20260906114412 79 70 2.0 5.0 0.00 0.00 0.00 48 1007.6
20260906113907 79 8 2.0 5.0 0.00 0.00 0.00 48 1007.5
20260906113403 80 357 3.0 8.0 0.00 0.00 0.00 48 1007.3
20260906112900 80 17 2.0 5.0 0.00 0.00 0.00 48 1007.3
20260906112355 80 350 1.0 4.0 0.00 0.00 0.00 49 1007.3
20260906112114 80 36 1.0 6.0 0.00 0.00 0.00 48 1007.2
20260906111348 80 37 4.0 6.0 0.00 0.00 0.00 48 1007.3
20260906110844 80 60 3.0 5.0 0.00 0.00 0.00 48 1007.1
20260906110339 80 41 3.0 5.0 0.00 0.00 0.00 48 1007.0
20260906105835 80 348 2.0 4.0 0.00 0.00 0.00 48 1007.3
20260906105331 80 4 2.0 6.0 0.00 0.00 0.00 49 1007.1
20260906104827 79 10 1.0 4.0 0.00 0.00 0.00 50 1007.1
20260906104324 79 338 2.0 4.0 0.00 0.00 0.00 50 1007.4
20260906103820 78 43 0.0 2.0 0.00 0.00 0.00 55 1007.4
20260906103316 78 0 2.0 2.0 0.00 0.00 0.00 56 1007.4
20260906102812 78 299 0.0 2.0 0.00 0.00 0.00 56 1007.4
20260906102531 78 305 1.0 3.0 0.00 0.00 0.00 55 1007.3
20260906101804 78 320 2.0 2.0 0.00 0.00 0.00 55 1007.4
20260906101300 78 274 1.0 2.0 0.00 0.00 0.00 54 1007.3
20260906100756 78 6 0.0 3.0 0.00 0.00 0.00 53 1007.4
20260906100252 78 327 0.0 2.0 0.00 0.00 0.00 54 1007.4
20260906100010 78 308 1.0 3.0 0.00 0.00 0.00 55 1007.3
20260906095244 79 261 0.0 3.0 0.00 0.00 0.00 53 1007.1
20260906094740 80 353 0.0 2.0 0.00 0.00 0.00 50 1007.1
20260906094236 80 291 1.0 2.0 0.00 0.00 0.00 50 1006.9
20260906093732 80 94 0.0 2.0 0.00 0.00 0.00 50 1006.8
20260906093449 80 230 0.0 2.0 0.00 0.00 0.00 50 1006.9
20260906092724 80 315 0.0 0.0 0.00 0.00 0.00 50 1007.0
20260906092220 80 89 0.0 1.0 0.00 0.00 0.00 50 1006.7
20260906091716 80 329 0.0 1.0 0.00 0.00 0.00 50 1007.0
20260906091436 80 158 1.0 3.0 0.00 0.00 0.00 50 1007.0
20260906090708 81 284 0.0 0.0 0.00 0.00 0.00 50 1006.9
20260906090204 81 135 0.0 2.0 0.00 0.00 0.00 49 1006.8
20260906085700 81 60 0.0 4.0 0.00 0.00 0.00 49 1007.0
20260906085156 82 13 0.0 2.0 0.00 0.00 0.00 48 1006.9
20260906084651 82 34 3.0 5.0 0.00 0.00 0.00 48 1006.9
20260906084147 82 60 1.0 4.0 0.00 0.00 0.00 48 1006.9
20260906083644 82 36 4.0 4.0 0.00 0.00 0.00 48 1007.0
20260906083139 82 29 2.0 4.0 0.00 0.00 0.00 48 1006.9
20260906082635 82 67 0.0 2.0 0.00 0.00 0.00 48 1007.0
20260906082131 82 18 1.0 6.0 0.00 0.00 0.00 48 1007.1
20260906081627 82 17 1.0 6.0 0.00 0.00 0.00 48 1007.1
20260906081123 82 23 0.0 7.0 0.00 0.00 0.00 48 1007.0
20260906080619 82 33 2.0 7.0 0.00 0.00 0.00 48 1007.2
20260906080115 82 20 2.0 7.0 0.00 0.00 0.00 48 1007.2
20260906075611 82 325 2.0 7.0 0.00 0.00 0.00 48 1007.2
20260906075107 82 327 3.0 5.0 0.00 0.00 0.00 48 1007.1
20260906074603 81 29 2.0 2.0 0.00 0.00 0.00 49 1007.3
20260906074059 82 274 2.0 3.0 0.00 0.00 0.00 48 1007.5
20260906073555 83 24 3.0 5.0 0.00 0.00 0.00 47 1007.5
20260906073313 83 22 2.0 5.0 0.00 0.00 0.00 46 1007.3
20260906072547 83 331 2.0 4.0 0.00 0.00 0.00 46 1007.3
20260906072306 83 41 2.0 3.0 0.00 0.00 0.00 46 1007.3
20260906071540 83 59 2.0 3.0 0.00 0.00 0.00 46 1007.5
20260906071035 83 40 3.0 5.0 0.00 0.00 0.00 46 1007.6
20260906070531 83 48 3.0 3.0 0.00 0.00 0.00 47 1007.5
20260906070027 83 9 0.0 2.0 0.00 0.00 0.00 47 1007.4
20260906065523 83 350 3.0 4.0 0.00 0.00 0.00 46 1007.5
20260906065019 83 339 4.0 4.0 0.00 0.00 0.00 47 1007.6
20260906064515 83 342 2.0 2.0 0.00 0.00 0.00 47 1007.5
20260906064011 83 343 2.0 3.0 0.00 0.00 0.00 46 1007.5
20260906063507 83 327 2.0 2.0 0.00 0.00 0.00 47 1007.7
20260906063003 82 22 0.0 2.0 0.00 0.00 0.00 47 1007.6
20260906062459 82 36 0.0 2.0 0.00 0.00 0.00 49 1007.9
20260906061955 81 38 1.0 2.0 0.00 0.00 0.00 50 1008.0
20260906061451 81 298 1.0 3.0 0.00 0.00 0.00 49 1007.7
20260906060947 81 289 2.0 3.0 0.00 0.00 0.00 49 1007.7
20260906060443 82 285 1.0 2.0 0.00 0.00 0.00 48 1007.8
20260906055940 82 243 0.0 2.0 0.00 0.00 0.00 48 1007.9
20260906055436 82 326 0.0 0.0 0.00 0.00 0.00 47 1007.7
20260906054932 83 315 0.0 1.0 0.00 0.00 0.00 47 1007.9
20260906054428 83 285 1.0 3.0 0.00 0.00 0.00 46 1007.8
20260906053924 83 284 0.0 3.0 0.00 0.00 0.00 46 1007.8
20260906053639 84 320 3.0 4.0 0.00 0.00 0.00 45 1007.6
20260906052916 84 317 2.0 4.0 0.00 0.00 0.00 45 1007.8
20260906052412 84 339 3.0 4.0 0.00 0.00 0.00 45 1007.7
20260906051908 83 320 2.0 3.0 0.00 0.00 0.00 46 1007.7
20260906051404 83 328 2.0 3.0 0.00 0.00 0.00 46 1008.0
20260906050900 83 313 2.0 3.0 0.00 0.00 0.00 46 1008.1
20260906050356 83 329 2.0 2.0 0.00 0.00 0.00 46 1008.0
20260906050115 83 296 2.0 4.0 0.00 0.00 0.00 46 1008.0
20260906045348 83 316 2.0 3.0 0.00 0.00 0.00 46 1007.8
20260906044844 83 332 0.0 3.0 0.00 0.00 0.00 46 1008.0
20260906044339 83 324 2.0 2.0 0.00 0.00 0.00 46 1008.1
20260906043835 83 316 2.0 4.0 0.00 0.00 0.00 46 1008.2
20260906043331 83 321 2.0 3.0 0.00 0.00 0.00 46 1008.0
20260906042827 84 281 4.0 6.0 0.00 0.00 0.00 44 1007.9
20260906042323 85 217 0.0 0.0 0.00 0.00 0.00 44 1008.0
20260906041819 85 284 2.0 4.0 0.00 0.00 0.00 43 1008.0
20260906041315 85 297 0.0 5.0 0.00 0.00 0.00 43 1007.9
20260906040811 88 291 2.0 2.0 0.00 0.00 0.00 40 1007.7
20260906040308 88 168 0.0 1.0 0.00 0.00 0.00 39 1007.8
20260906035804 89 148 1.0 2.0 0.00 0.00 0.00 39 1007.7
20260906035300 89 142 2.0 2.0 0.00 0.00 0.00 39 1007.7
20260906034755 89 161 0.0 3.0 0.00 0.00 0.00 38 1007.8
20260906034513 89 171 1.0 2.0 0.00 0.00 0.00 38 1007.6
20260906033747 89 148 2.0 5.0 0.00 0.00 0.00 38 1007.6
20260906033243 89 143 2.0 4.0 0.00 0.00 0.00 38 1007.4
20260906033231 89 133 2.0 5.0 0.00 0.00 0.00 38 1007.5
20260906032235 89 122 3.0 6.0 0.00 0.00 0.00 37 1007.5
20260906031731 90 165 4.0 5.0 0.00 0.00 0.00 37 1007.3
20260906031227 90 133 2.0 4.0 0.00 0.00 0.00 37 1007.3
20260906030723 90 170 1.0 4.0 0.00 0.00 0.00 37 1007.1
20260906030219 90 174 4.0 8.0 0.00 0.00 0.00 37 1007.2
20260906025715 90 150 2.0 5.0 0.00 0.00 0.00 37 1006.7
20260906025211 90 135 2.0 5.0 0.00 0.00 0.00 36 1006.9
20260906024707 90 166 2.0 7.0 0.00 0.00 0.00 36 1006.8
20260906024203 91 166 1.0 6.0 0.00 0.00 0.00 36 1006.9
20260906023700 91 175 3.0 8.0 0.00 0.00 0.00 36 1006.9
20260906023156 91 161 3.0 8.0 0.00 0.00 0.00 36 1006.9
20260906022652 91 186 6.0 10.0 0.00 0.00 0.00 35 1006.8
20260906022147 91 195 4.0 9.0 0.00 0.00 0.00 35 1006.8
20260906021644 91 159 4.0 9.0 0.00 0.00 0.00 35 1007.1
20260906021139 91 171 7.0 10.0 0.00 0.00 0.00 35 1007.0
20260906020636 91 175 6.0 12.0 0.00 0.00 0.00 35 1007.0
20260906020131 92 162 6.0 11.0 0.00 0.00 0.00 35 1007.1
20260906015627 92 146 6.0 11.0 0.00 0.00 0.00 35 1007.0
20260906015123 92 147 6.0 16.0 0.00 0.00 0.00 35 1006.9
20260906014620 92 170 4.0 7.0 0.00 0.00 0.00 35 1007.0
20260906014116 92 145 13.0 19.0 0.00 0.00 0.00 35 1006.9
20260906013835 92 159 5.0 16.0 0.00 0.00 0.00 35 1007.0
20260906013108 92 163 7.0 16.0 0.00 0.00 0.00 34 1007.0
20260906012604 92 143 11.0 19.0 0.00 0.00 0.00 34 1006.8
20260906012100 93 149 11.0 15.0 0.00 0.00 0.00 34 1007.0
20260906011556 93 171 7.0 18.0 0.00 0.00 0.00 35 1007.0
20260906011314 93 147 6.0 17.0 0.00 0.00 0.00 34 1006.8
20260906010548 93 162 8.0 14.0 0.00 0.00 0.00 34 1007.1
20260906010044 93 160 6.0 11.0 0.00 0.00 0.00 34 1007.1
20260906005540 94 147 5.0 13.0 0.00 0.00 0.00 34 1007.2
20260906005036 94 175 9.0 14.0 0.00 0.00 0.00 33 1007.1
20260906004532 94 175 10.0 19.0 0.00 0.00 0.00 33 1006.8
20260906004028 94 135 13.0 19.0 0.00 0.00 0.00 33 1006.8
20260906003524 94 174 3.0 14.0 0.00 0.00 0.00 33 1007.0
20260906003020 94 178 10.0 21.0 0.00 0.00 0.00 33 1007.1
20260906002516 94 169 9.0 19.0 0.00 0.00 0.00 33 1007.1
20260906002012 94 159 8.0 11.0 0.00 0.00 0.00 33 1007.1
20260906001508 94 144 11.0 20.0 0.00 0.00 0.00 33 1007.0
20260906001004 94 151 7.0 13.0 0.00 0.00 0.00 33 1007.0
20260906000721 94 201 7.0 20.0 0.00 0.00 0.00 33 1006.9
20260906000219 94 137 17.0 17.0 0.00 0.00 0.00 32 1006.9
20260905235452 93 164 4.0 19.0 0.00 0.00 0.00 32 1006.8
20260905234948 93 133 4.0 15.0 0.00 0.00 0.00 32 1006.7
20260905234444 94 172 11.0 19.0 0.00 0.00 0.00 32 1006.7
20260905233940 94 163 10.0 18.0 0.00 0.00 0.00 32 1006.8
20260905233438 94 161 4.0 17.0 0.00 0.00 0.00 32 1006.6
20260905232933 94 149 6.0 19.0 0.00 0.00 0.00 32 1006.9
20260905232429 94 182 9.0 18.0 0.00 0.00 0.00 32 1006.8
20260905231925 94 146 5.0 19.0 0.00 0.00 0.00 32 1006.9
20260905231422 94 146 7.0 19.0 0.00 0.00 0.00 32 1006.8
20260905230917 94 161 8.0 16.0 0.00 0.00 0.00 32 1006.9
20260905230636 94 165 9.0 16.0 0.00 0.00 0.00 31 1006.8
20260905225909 95 161 13.0 15.0 0.00 0.00 0.00 31 1006.9
20260905225405 94 99 6.0 14.0 0.00 0.00 0.00 31 1006.8
20260905224901 95 108 8.0 18.0 0.00 0.00 0.00 31 1007.0
20260905224357 94 146 6.0 19.0 0.00 0.00 0.00 32 1006.8
20260905223853 94 156 12.0 15.0 0.00 0.00 0.00 31 1007.0
20260905223349 94 167 5.0 15.0 0.00 0.00 0.00 31 1006.8
20260905222845 95 147 14.0 16.0 0.00 0.00 0.00 31 1007.0
20260905222341 94 149 10.0 16.0 0.00 0.00 0.00 32 1007.1
20260905221837 94 144 8.0 16.0 0.00 0.00 0.00 32 1007.0
20260905221333 93 163 3.0 11.0 0.00 0.00 0.00 32 1007.2
20260905220829 94 173 4.0 16.0 0.00 0.00 0.00 32 1007.1
20260905220325 94 146 6.0 18.0 0.00 0.00 0.00 32 1007.1
20260905215821 94 161 5.0 15.0 0.00 0.00 0.00 32 1007.1
20260905215541 94 173 8.0 12.0 0.00 0.00 0.00 32 1007.4
20260905214813 94 132 9.0 17.0 0.00 0.00 0.00 31 1007.3
20260905214532 94 198 5.0 17.0 0.00 0.00 0.00 32 1007.5
20260905213805 95 185 8.0 14.0 0.00 0.00 0.00 31 1007.3
20260905213301 94 193 4.0 11.0 0.00 0.00 0.00 31 1007.6
20260905212757 94 181 2.0 8.0 0.00 0.00 0.00 31 1007.5
20260905212253 94 156 3.0 10.0 0.00 0.00 0.00 32 1007.6
20260905212241 94 223 4.0 13.0 0.00 0.00 0.00 32 1007.6
20260905211738 93 188 4.0 9.0 0.00 0.00 0.00 32 1007.8
20260905210741 93 158 5.0 12.0 0.00 0.00 0.00 32 1008.0
20260905210237 94 160 4.0 8.0 0.00 0.00 0.00 31 1007.9
20260905205733 93 129 3.0 10.0 0.00 0.00 0.00 32 1007.9
20260905205229 93 101 4.0 11.0 0.00 0.00 0.00 32 1008.1
20260905204948 94 126 6.0 14.0 0.00 0.00 0.00 32 1007.9
20260905204221 92 221 5.0 11.0 0.00 0.00 0.00 34 1008.2
20260905203717 92 173 7.0 13.0 0.00 0.00 0.00 34 1008.4
20260905203213 93 145 7.0 15.0 0.00 0.00 0.00 33 1008.1
20260905202709 92 184 2.0 8.0 0.00 0.00 0.00 33 1008.4
20260905202205 92 132 3.0 8.0 0.00 0.00 0.00 33 1008.4
20260905201701 93 193 8.0 17.0 0.00 0.00 0.00 33 1008.5
20260905201157 92 101 9.0 9.0 0.00 0.00 0.00 34 1008.7
20260905200653 92 212 3.0 9.0 0.00 0.00 0.00 33 1008.6
20260905200409 91 130 4.0 11.0 0.00 0.00 0.00 34 1008.8
20260905195645 93 98 4.0 15.0 0.00 0.00 0.00 34 1008.6
20260905195141 92 146 3.0 11.0 0.00 0.00 0.00 35 1008.8
20260905194638 92 69 5.0 12.0 0.00 0.00 0.00 36 1008.9
20260905194134 92 133 7.0 13.0 0.00 0.00 0.00 36 1008.9
20260905193630 91 83 10.0 10.0 0.00 0.00 0.00 36 1009.1
20260905193126 91 118 15.0 15.0 0.00 0.00 0.00 36 1009.1
20260905192622 92 147 7.0 14.0 0.00 0.00 0.00 36 1009.2
20260905192118 91 186 6.0 18.0 0.00 0.00 0.00 36 1009.4
20260905191614 90 175 5.0 10.0 0.00 0.00 0.00 37 1009.4